GW0175 Weather Reports


Display with metric or nautical units.
time (UTC)temp
F
wind
direction
speed
MPH
gust
MPH
rain 1hr
in
rain 24hr
in
rain mn
in
humidity
%
barometer
mb
20260507040653 64 247 3.0 7.0 0.00 0.00 0.00 29 1011.8
20260507040150 64 259 4.0 6.0 0.00 0.00 0.00 30 1011.6
20260507035646 64 240 3.0 5.0 0.00 0.00 0.00 30 1011.9
20260507035142 65 235 5.0 6.0 0.00 0.00 0.00 30 1011.8
20260507034639 65 255 2.0 6.0 0.00 0.00 0.00 30 1011.4
20260507034136 65 231 4.0 6.0 0.00 0.00 0.00 30 1011.3
20260507033635 65 243 3.0 6.0 0.00 0.00 0.00 30 1011.4
20260507033131 64 239 4.0 6.0 0.00 0.00 0.00 30 1011.4
20260507032629 65 255 4.0 6.0 0.00 0.00 0.00 30 1011.2
20260507032125 64 239 2.0 5.0 0.00 0.00 0.00 31 1011.2
20260507031622 65 234 3.0 5.0 0.00 0.00 0.00 30 1011.2
20260507031118 65 254 3.0 4.0 0.00 0.00 0.00 30 1011.0
20260507030615 66 258 2.0 5.0 0.00 0.00 0.00 29 1011.0
20260507030113 66 250 4.0 4.0 0.00 0.00 0.00 28 1011.0
20260507025610 67 251 2.0 4.0 0.00 0.00 0.00 27 1010.9
20260507025107 67 216 2.0 3.0 0.00 0.00 0.00 27 1011.0
20260507024605 68 270 0.0 2.0 0.00 0.00 0.00 26 1010.3
20260507024102 68 237 2.0 3.0 0.00 0.00 0.00 25 1010.9
20260507023557 69 270 1.0 3.0 0.00 0.00 0.00 25 1010.7
20260507023055 70 270 0.0 3.0 0.00 0.00 0.00 24 1010.3
20260507022551 70 286 1.0 5.0 0.00 0.00 0.00 23 1010.2
20260507022046 70 235 2.0 5.0 0.00 0.00 0.00 23 1010.2
20260507021543 71 248 3.0 6.0 0.00 0.00 0.00 22 1010.1
20260507021039 72 232 4.0 4.0 0.00 0.00 0.00 21 1010.0
20260507020537 73 252 3.0 7.0 0.00 0.00 0.00 20 1010.0
20260507020033 73 266 3.0 7.0 0.00 0.00 0.00 20 1010.0
20260507015532 73 259 0.0 7.0 0.00 0.00 0.00 19 1010.0
20260507015029 74 229 5.0 5.0 0.00 0.00 0.00 19 1009.9
20260507014526 75 255 4.0 7.0 0.00 0.00 0.00 18 1009.7
20260507014021 75 260 4.0 8.0 0.00 0.00 0.00 18 1009.5
20260507013518 75 287 3.0 5.0 0.00 0.00 0.00 18 1009.5
20260507013016 76 302 3.0 5.0 0.00 0.00 0.00 18 1009.5
20260507012513 77 252 3.0 7.0 0.00 0.00 0.00 17 1009.6
20260507012009 77 297 3.0 6.0 0.00 0.00 0.00 16 1009.4
20260507011506 77 257 7.0 11.0 0.00 0.00 0.00 15 1009.2
20260507011002 78 278 5.0 10.0 0.00 0.00 0.00 15 1009.2
20260507010456 78 254 5.0 12.0 0.00 0.00 0.00 15 1009.2
20260507005953 78 264 5.0 12.0 0.00 0.00 0.00 15 1008.9
20260507005451 78 256 3.0 9.0 0.00 0.00 0.00 15 1009.0
20260507004947 79 270 3.0 10.0 0.00 0.00 0.00 14 1009.1
20260507004444 79 273 3.0 11.0 0.00 0.00 0.00 14 1008.9
20260507003942 80 233 15.0 15.0 0.00 0.00 0.00 14 1008.8
20260507003437 80 262 4.0 12.0 0.00 0.00 0.00 14 1008.9
20260507002932 80 270 6.0 17.0 0.00 0.00 0.00 14 1008.8
20260507002428 80 241 4.0 16.0 0.00 0.00 0.00 14 1008.8
20260507001926 80 232 8.0 18.0 0.00 0.00 0.00 14 1008.8
20260507001422 81 298 3.0 14.0 0.00 0.00 0.00 14 1008.7
20260507000920 81 262 7.0 20.0 0.00 0.00 0.00 14 1008.7
20260507000415 81 323 4.0 14.0 0.00 0.00 0.00 14 1008.5
20260506235911 81 247 8.0 19.0 0.00 0.00 0.00 14 1008.3
20260506235409 81 272 8.0 15.0 0.00 0.00 0.00 13 1008.4
20260506234904 81 295 6.0 13.0 0.00 0.00 0.00 13 1008.5
20260506234402 81 319 2.0 15.0 0.00 0.00 0.00 13 1008.4
20260506233859 82 254 3.0 13.0 0.00 0.00 0.00 14 1008.4
20260506233355 82 261 2.0 12.0 0.00 0.00 0.00 13 1008.4
20260506232852 81 253 6.0 15.0 0.00 0.00 0.00 13 1008.6
20260506232348 82 263 9.0 17.0 0.00 0.00 0.00 13 1008.3
20260506231844 82 257 6.0 11.0 0.00 0.00 0.00 14 1008.0
20260506231342 81 239 6.0 23.0 0.00 0.00 0.00 14 1008.4
20260506230839 82 250 3.0 14.0 0.00 0.00 0.00 13 1008.3
20260506230336 82 294 5.0 15.0 0.00 0.00 0.00 13 1008.2
20260506225832 82 238 4.0 17.0 0.00 0.00 0.00 13 1008.2
20260506225330 82 235 5.0 11.0 0.00 0.00 0.00 13 1008.0
20260506224827 82 262 11.0 20.0 0.00 0.00 0.00 13 1007.9
20260506224324 83 257 5.0 10.0 0.00 0.00 0.00 14 1008.2
20260506223820 82 251 13.0 14.0 0.00 0.00 0.00 14 1008.0
20260506223315 82 265 6.0 10.0 0.00 0.00 0.00 14 1008.0
20260506222813 82 254 7.0 13.0 0.00 0.00 0.00 14 1008.0
20260506222308 81 268 5.0 17.0 0.00 0.00 0.00 14 1008.2
20260506221806 82 238 7.0 22.0 0.00 0.00 0.00 14 1007.9
20260506221303 81 238 7.0 16.0 0.00 0.00 0.00 14 1008.3
20260506220801 82 266 6.0 14.0 0.00 0.00 0.00 14 1008.3
20260506220255 81 245 5.0 15.0 0.00 0.00 0.00 14 1008.0
20260506215753 81 265 5.0 17.0 0.00 0.00 0.00 14 1008.3
20260506215248 82 236 9.0 24.0 0.00 0.00 0.00 14 1008.2
20260506214745 82 229 5.0 12.0 0.00 0.00 0.00 14 1008.2
20260506214242 80 248 8.0 17.0 0.00 0.00 0.00 15 1008.2
20260506213740 82 241 15.0 23.0 0.00 0.00 0.00 15 1008.3
20260506213232 80 255 11.0 26.0 0.00 0.00 0.00 14 1008.2
20260506212729 81 213 6.0 14.0 0.00 0.00 0.00 15 1008.2
20260506212224 81 260 6.0 16.0 0.00 0.00 0.00 14 1008.5
20260506211719 82 279 5.0 17.0 0.00 0.00 0.00 15 1008.5
20260506211216 82 311 3.0 11.0 0.00 0.00 0.00 16 1008.6
20260506210713 81 240 7.0 13.0 0.00 0.00 0.00 15 1008.7
20260506210210 81 255 9.0 19.0 0.00 0.00 0.00 16 1008.7
20260506205707 80 254 5.0 14.0 0.00 0.00 0.00 15 1008.6
20260506205202 82 264 10.0 13.0 0.00 0.00 0.00 15 1008.8
20260506204700 82 270 4.0 13.0 0.00 0.00 0.00 16 1008.9
20260506204156 80 268 8.0 18.0 0.00 0.00 0.00 17 1008.7
20260506203655 80 229 5.0 12.0 0.00 0.00 0.00 17 1008.7
20260506203152 81 273 13.0 13.0 0.00 0.00 0.00 16 1008.9
20260506202650 81 274 5.0 13.0 0.00 0.00 0.00 16 1008.9
20260506202145 81 239 5.0 11.0 0.00 0.00 0.00 17 1009.0
20260506201642 80 257 12.0 14.0 0.00 0.00 0.00 16 1008.8
20260506201139 81 268 7.0 15.0 0.00 0.00 0.00 17 1008.8
20260506200636 80 24 2.0 14.0 0.00 0.00 0.00 17 1009.0
20260506200132 80 303 5.0 16.0 0.00 0.00 0.00 17 1008.9
20260506195629 80 274 5.0 14.0 0.00 0.00 0.00 16 1008.9
20260506195125 80 287 4.0 15.0 0.00 0.00 0.00 17 1008.9
20260506194623 79 275 6.0 17.0 0.00 0.00 0.00 17 1009.0
20260506194119 80 246 9.0 10.0 0.00 0.00 0.00 18 1009.0
20260506193617 79 264 9.0 20.0 0.00 0.00 0.00 18 1009.2
20260506193114 80 279 6.0 14.0 0.00 0.00 0.00 15 1009.5
20260506192611 79 232 12.0 12.0 0.00 0.00 0.00 16 1009.5
20260506192106 80 287 2.0 12.0 0.00 0.00 0.00 16 1009.5
20260506191603 80 247 14.0 15.0 0.00 0.00 0.00 16 1009.1
20260506191059 78 282 10.0 18.0 0.00 0.00 0.00 16 1009.7
20260506190557 80 248 9.0 19.0 0.00 0.00 0.00 17 1009.1
20260506190053 78 235 10.0 14.0 0.00 0.00 0.00 18 1009.9
20260506185551 79 290 10.0 10.0 0.00 0.00 0.00 15 1009.7
20260506185047 79 280 4.0 14.0 0.00 0.00 0.00 16 1009.7
20260506184544 78 251 6.0 11.0 0.00 0.00 0.00 17 1009.7
20260506184042 79 340 1.0 10.0 0.00 0.00 0.00 16 1009.9
20260506183538 78 272 7.0 15.0 0.00 0.00 0.00 18 1009.9
20260506183034 79 270 0.0 13.0 0.00 0.00 0.00 16 1009.8
20260506182532 78 261 5.0 11.0 0.00 0.00 0.00 18 1010.0
20260506182029 77 259 5.0 15.0 0.00 0.00 0.00 17 1010.1
20260506181527 78 352 2.0 9.0 0.00 0.00 0.00 18 1010.1
20260506181023 78 256 7.0 11.0 0.00 0.00 0.00 18 1010.3
20260506180520 77 260 11.0 11.0 0.00 0.00 0.00 19 1010.0
20260506180016 77 276 7.0 12.0 0.00 0.00 0.00 19 1010.3
20260506175513 77 267 9.0 13.0 0.00 0.00 0.00 19 1010.1
20260506175010 77 239 4.0 20.0 0.00 0.00 0.00 18 1010.3
20260506174508 77 270 2.0 11.0 0.00 0.00 0.00 20 1010.4
20260506174004 77 352 0.0 8.0 0.00 0.00 0.00 22 1010.6
20260506173502 75 190 3.0 5.0 0.00 0.00 0.00 31 1010.4
20260506172958 75 90 0.0 3.0 0.00 0.00 0.00 33 1011.0
20260506172455 74 157 1.0 4.0 0.00 0.00 0.00 35 1010.6
20260506171946 73 223 4.0 7.0 0.00 0.00 0.00 35 1010.9
20260506171444 74 166 0.0 2.0 0.00 0.00 0.00 34 1010.9
20260506170941 72 259 3.0 5.0 0.00 0.00 0.00 36 1011.0
20260506170437 73 249 7.0 7.0 0.00 0.00 0.00 35 1011.1
20260506165931 71 306 0.0 8.0 0.00 0.00 0.00 38 1011.1
20260506165429 71 4 2.0 6.0 0.00 0.00 0.00 38 1011.3
20260506164924 70 324 2.0 6.0 0.00 0.00 0.00 37 1011.2
20260506164421 70 17 4.0 5.0 0.00 0.00 0.00 38 1011.3
20260506163919 69 315 2.0 4.0 0.00 0.00 0.00 39 1011.3
20260506163413 70 1 6.0 6.0 0.00 0.00 0.00 38 1011.2
20260506162908 69 36 6.0 7.0 0.00 0.00 0.00 40 1011.3
20260506162406 70 143 0.0 6.0 0.00 0.00 0.00 40 1011.4
20260506161858 70 74 0.0 4.0 0.00 0.00 0.00 40 1011.4
20260506161356 68 115 2.0 4.0 0.00 0.00 0.00 44 1011.4
20260506160853 69 69 0.0 3.0 0.00 0.00 0.00 44 1011.4
20260506160350 67 23 4.0 6.0 0.00 0.00 0.00 47 1011.5
20260506155848 68 36 3.0 4.0 0.00 0.00 0.00 46 1011.5
20260506155345 68 100 5.0 6.0 0.00 0.00 0.00 44 1011.8
20260506153502 67 0 0.0 2.0 0.00 0.00 0.00 47 1011.8
20260506153000 65 277 0.0 3.0 0.00 0.00 0.00 48 1012.0
20260506152456 66 0 0.0 2.0 0.00 0.00 0.00 48 1011.6
20260506151954 64 17 4.0 7.0 0.00 0.00 0.00 51 1011.9
20260506151452 64 0 2.0 6.0 0.00 0.00 0.00 52 1011.8
20260506150949 63 19 4.0 5.0 0.00 0.00 0.00 52 1011.8
20260506150445 62 7 4.0 7.0 0.00 0.00 0.00 54 1011.9
20260506145942 62 0 3.0 7.0 0.00 0.00 0.00 53 1011.8
20260506145438 62 337 4.0 8.0 0.00 0.00 0.00 55 1011.9
20260506144936 62 30 5.0 7.0 0.00 0.00 0.00 56 1012.1
20260506144432 62 9 6.0 8.0 0.00 0.00 0.00 55 1011.9
20260506143931 62 341 3.0 8.0 0.00 0.00 0.00 56 1012.0
20260506143428 62 26 0.0 7.0 0.00 0.00 0.00 57 1012.1
20260506142926 60 1 6.0 7.0 0.00 0.00 0.00 57 1011.8
20260506142424 60 7 6.0 8.0 0.00 0.00 0.00 58 1012.2
20260506141921 60 12 6.0 9.0 0.00 0.00 0.00 57 1012.0
20260506141419 60 1 6.0 8.0 0.00 0.00 0.00 58 1012.1
20260506140918 59 3 8.0 10.0 0.00 0.00 0.00 58 1012.4
20260506140414 59 355 7.0 8.0 0.00 0.00 0.00 59 1012.3
20260506135911 59 6 5.0 9.0 0.00 0.00 0.00 60 1012.2
20260506135408 59 345 5.0 8.0 0.00 0.00 0.00 59 1012.3
20260506134904 59 3 5.0 7.0 0.00 0.00 0.00 60 1012.1
20260506134400 60 349 2.0 6.0 0.00 0.00 0.00 59 1012.0
20260506133857 59 303 2.0 5.0 0.00 0.00 0.00 61 1012.2
20260506133354 58 345 0.0 8.0 0.00 0.00 0.00 61 1011.6
20260506132850 58 350 3.0 8.0 0.00 0.00 0.00 61 1011.5
20260506132348 58 332 2.0 5.0 0.00 0.00 0.00 62 1011.5
20260506131846 58 2 3.0 5.0 0.00 0.00 0.00 63 1011.8
20260506131342 59 0 2.0 2.0 0.00 0.00 0.00 62 1011.6
20260506130839 59 24 2.0 2.0 0.00 0.00 0.00 64 1011.5
20260506130335 58 131 0.0 2.0 0.00 0.00 0.00 66 1011.3
20260506125833 56 0 1.0 4.0 0.00 0.00 0.00 65 1011.2
20260506125332 57 90 0.0 0.0 0.00 0.00 0.00 65 1011.2
20260506124830 57 77 0.0 2.0 0.00 0.00 0.00 68 1011.3
20260506124326 55 14 0.0 1.0 0.00 0.00 0.00 68 1011.2
20260506123824 54 99 0.0 3.0 0.00 0.00 0.00 70 1011.2
20260506123322 53 3 2.0 4.0 0.00 0.00 0.00 71 1011.3
20260506122819 53 41 0.0 2.0 0.00 0.00 0.00 72 1011.0
20260506122316 53 26 3.0 3.0 0.00 0.00 0.00 71 1011.0
20260506121814 53 8 0.0 1.0 0.00 0.00 0.00 71 1011.1
20260506121311 53 0 2.0 4.0 0.00 0.00 0.00 70 1010.9
20260506120808 54 0 2.0 4.0 0.00 0.00 0.00 70 1010.8
20260506120306 53 15 3.0 4.0 0.00 0.00 0.00 71 1010.7
20260506115803 53 0 2.0 4.0 0.00 0.00 0.00 70 1010.6
20260506115306 53 351 3.0 4.0 0.00 0.00 0.00 70 1010.6
20260506114759 53 6 4.0 4.0 0.00 0.00 0.00 71 1010.4
20260506114256 53 16 4.0 4.0 0.00 0.00 0.00 70 1010.3
20260506113755 55 0 5.0 5.0 0.00 0.00 0.00 68 1010.4
20260506113252 54 35 0.0 2.0 0.00 0.00 0.00 68 1010.7
20260506112748 55 5 2.0 5.0 0.00 0.00 0.00 67 1010.2
20260506112246 55 18 3.0 5.0 0.00 0.00 0.00 65 1010.3
20260506111743 55 9 5.0 8.0 0.00 0.00 0.00 64 1010.1
20260506111241 56 18 5.0 5.0 0.00 0.00 0.00 62 1010.2
20260506110737 57 52 6.0 8.0 0.00 0.00 0.00 60 1010.1
20260506110236 58 37 6.0 10.0 0.00 0.00 0.00 57 1009.9
20260506105732 60 56 9.0 12.0 0.00 0.00 0.00 52 1010.1
20260506105229 59 9 6.0 12.0 0.00 0.00 0.00 51 1009.9
20260506104727 58 353 6.0 7.0 0.00 0.00 0.00 52 1009.7
20260506104224 58 357 2.0 5.0 0.00 0.00 0.00 52 1009.4
20260506103721 57 11 3.0 7.0 0.00 0.00 0.00 55 1009.4
20260506103218 58 344 6.0 7.0 0.00 0.00 0.00 54 1009.0
20260506102716 60 345 1.0 6.0 0.00 0.00 0.00 47 1009.0
20260506102214 61 15 1.0 3.0 0.00 0.00 0.00 45 1009.0
20260506101710 62 18 0.0 2.0 0.00 0.00 0.00 43 1008.7
20260506101207 62 19 3.0 3.0 0.00 0.00 0.00 42 1008.8
20260506100705 63 8 2.0 5.0 0.00 0.00 0.00 41 1009.0
20260506100203 63 29 0.0 3.0 0.00 0.00 0.00 40 1008.7
20260506095701 64 135 2.0 4.0 0.00 0.00 0.00 39 1008.6
20260506095158 64 315 3.0 6.0 0.00 0.00 0.00 40 1008.7
20260506094655 61 16 0.0 3.0 0.00 0.00 0.00 47 1008.5
20260506094153 60 131 2.0 2.0 0.00 0.00 0.00 48 1008.7
20260506093651 59 120 0.0 3.0 0.00 0.00 0.00 53 1008.5
20260506093148 59 106 0.0 3.0 0.00 0.00 0.00 54 1008.4
20260506092646 59 90 1.0 3.0 0.00 0.00 0.00 55 1008.4
20260506092143 59 65 2.0 4.0 0.00 0.00 0.00 56 1008.4
20260506091640 58 33 2.0 3.0 0.00 0.00 0.00 57 1008.2
20260506091137 58 68 3.0 5.0 0.00 0.00 0.00 57 1008.3
20260506090636 59 82 1.0 3.0 0.00 0.00 0.00 57 1008.0
20260506090132 58 103 0.0 2.0 0.00 0.00 0.00 58 1008.0
20260506085629 58 105 0.0 1.0 0.00 0.00 0.00 60 1007.8
20260506085125 59 82 0.0 1.0 0.00 0.00 0.00 57 1007.9
20260506084622 59 90 0.0 1.0 0.00 0.00 0.00 57 1007.7
20260506084118 60 35 0.0 0.0 0.00 0.00 0.00 55 1007.7
20260506083616 61 52 2.0 3.0 0.00 0.00 0.00 55 1007.8
20260506083113 60 23 2.0 2.0 0.00 0.00 0.00 54 1007.4
20260506082610 59 0 0.0 3.0 0.00 0.00 0.00 56 1007.6
20260506082105 60 53 2.0 3.0 0.00 0.00 0.00 56 1007.6
20260506081603 61 294 0.0 4.0 0.00 0.00 0.00 53 1007.7
20260506081101 61 302 3.0 3.0 0.00 0.00 0.00 54 1007.6
20260506080559 62 99 0.0 2.0 0.00 0.00 0.00 50 1007.8
20260506073038 65 325 0.0 3.0 0.00 0.00 0.00 43 1007.5
20260506072536 66 286 0.0 3.0 0.00 0.00 0.00 42 1007.5
20260506072034 66 280 2.0 4.0 0.00 0.00 0.00 41 1007.4
20260506071531 66 292 3.0 4.0 0.00 0.00 0.00 41 1007.6
20260506071028 67 274 3.0 5.0 0.00 0.00 0.00 41 1007.3
20260506070525 67 277 4.0 4.0 0.00 0.00 0.00 42 1007.4
20260506062503 66 185 1.0 3.0 0.00 0.00 0.00 48 1007.5
20260506061959 65 180 1.0 3.0 0.00 0.00 0.00 50 1007.2
20260506061455 65 90 0.0 2.0 0.00 0.00 0.00 51 1007.3
20260506060953 65 139 0.0 3.0 0.00 0.00 0.00 50 1007.3
20260506060451 64 162 1.0 2.0 0.00 0.00 0.00 55 1007.3
20260506050920 66 270 0.0 2.0 0.00 0.00 0.00 51 1007.1
20260506050418 65 294 0.0 2.0 0.00 0.00 0.00 52 1007.3
20260506044908 64 216 2.0 2.0 0.00 0.00 0.00 55 1007.2
20260506044406 64 194 0.0 4.0 0.00 0.00 0.00 52 1007.2
20260506043903 65 208 2.0 4.0 0.00 0.00 0.00 56 1007.2
20260506043400 66 234 0.0 2.0 0.00 0.00 0.00 53 1006.9
20260506042858 66 261 0.0 1.0 0.00 0.00 0.00 52 1006.9
20260506042357 66 8 0.0 0.0 0.00 0.00 0.00 50 1007.1
20260506041855 66 8 0.0 0.0 0.00 0.00 0.00 47 1006.7
20260506041354 66 8 0.0 0.0 0.00 0.00 0.00 48 1006.8
20260506040849 66 8 0.0 0.0 0.00 0.00 0.00 47 1006.7